Naples, FL

12:39 PM EDT on August 30, 2016 (GMT -0400)
Naples Municipal

Weather History for KAPF - December, 2011

Change the Weather History Date:

Thursday, December 1, 2011

  Actual Average Record
Temperature  
Mean Temperature 61 °F 69 °F  
Max Temperature 71 °F 78 °F 89 °F (1982)
Min Temperature 50 °F 60 °F 37 °F (1979)
Degree Days  
Heating Degree Days 4 1  
Month to date heating degree days 4 1  
Since 1 July heating degree days 6 15  
Cooling Degree Days 0 5  
Month to date cooling degree days 0 5  
Year to date cooling degree days 4118 3824  
Growing Degree Days 10 (Base 50)    
Moisture  
Dew Point 50 °F    
Average Humidity 67    
Maximum Humidity 89    
Minimum Humidity 44    
Precipitation  
Precipitation 0.00 in 0.04 in 1.66 in (1997)
Month to date precipitation 0.00 0.04  
Year to date precipitation 37.75 50.48  
Snow  
Snow 0.00 in - - ()
Month to date snowfall 0.0  
Since 1 July snowfall 0.0  
Snow Depth 0.00 in    
Sea Level Pressure  
Sea Level Pressure 30.14 in    
Wind  
Wind Speed 8 mph (NNE)    
Max Wind Speed 15 mph    
Max Gust Speed 18 mph    
Visibility 10 miles    
Events      
T = Trace of Precipitation, MM = Missing Value Source: NWS Daily Summary

Daily Weather History Graph

Daily Weather History Graph

Search for Another Location

Airport or City:

Trip Planner

Search our weather history database for the weather conditions in past years. The results will help you decide how hot, cold, wet, or windy it might be!

Date:

Astronomy

Dec. 01, 2011 Rise Set
Actual Time 6:57 AM EST 5:34 PM EST
Civil Twilight 6:32 AM EST 5:59 PM EST
Nautical Twilight 6:03 AM EST 6:28 PM EST
Astronomical Twilight 5:35 AM EST 6:56 PM EST
Moon 12:05 PM EST (12/1) No Moon Set
Length of Visible Light 11h 27m
Length of Day
10h 37m
Waxing Crescent, 43% of the Moon is Illuminated
Dec 1
Waxing Crescent
Dec 2
First Quarter
Dec 10
Full
Dec 17
Last Quarter
Dec 24
New

Hourly Weather History & Observations

Time (EST) Temp. Dew Point Humidity Pressure Visibility Wind Dir Wind Speed Gust Speed Precip Events Conditions
12:53 AM 54.0 °F 48.9 °F 83% 30.09 in 10.0 mi North 6.9 mph - N/A   Clear
1:53 AM 53.1 °F 48.9 °F 86% 30.09 in 10.0 mi North 4.6 mph - N/A   Clear
2:53 AM 53.1 °F 48.9 °F 86% 30.09 in 10.0 mi NNE 6.9 mph - N/A   Clear
3:53 AM 51.1 °F 48.9 °F 92% 30.08 in 10.0 mi NNE 5.8 mph - N/A   Clear
4:53 AM 51.1 °F 48.0 °F 89% 30.09 in 10.0 mi North 6.9 mph - N/A   Clear
5:53 AM 51.1 °F 46.9 °F 86% 30.11 in 10.0 mi North 4.6 mph - N/A   Clear
6:53 AM 50.0 °F 46.0 °F 86% 30.13 in 10.0 mi North 4.6 mph - N/A   Clear
7:53 AM 51.8 °F 44.6 °F 76% 30.15 in 10.0 mi North 5.8 mph - N/A   Clear
8:53 AM 55.0 °F 45.0 °F 69% 30.17 in 10.0 mi North 5.8 mph - N/A   Clear
9:53 AM 57.9 °F 46.0 °F 65% 30.18 in 10.0 mi Variable 5.8 mph - N/A   Clear
10:53 AM 62.1 °F 48.0 °F 60% 30.17 in 10.0 mi North 9.2 mph - N/A   Clear
11:53 AM 64.9 °F 50.0 °F 58% 30.14 in 10.0 mi NNE 10.4 mph 18.4 mph N/A   Clear
12:53 PM 68.0 °F 50.0 °F 52% 30.11 in 10.0 mi NE 9.2 mph - N/A   Clear
1:53 PM 70.0 °F 50.0 °F 49% 30.09 in 10.0 mi NNE 12.7 mph 17.3 mph N/A   Clear
2:53 PM 71.1 °F 48.9 °F 45% 30.10 in 10.0 mi NE 11.5 mph - N/A   Clear
3:53 PM 71.6 °F 48.2 °F 43% 30.11 in 10.0 mi NE 13.8 mph - N/A   Clear
4:53 PM 70.0 °F 50.0 °F 49% 30.11 in 10.0 mi NE 10.4 mph - N/A   Clear
5:53 PM 66.9 °F 51.1 °F 57% 30.14 in 10.0 mi NNE 4.6 mph - N/A   Clear
6:53 PM 64.9 °F 52.0 °F 63% 30.16 in 10.0 mi North 3.5 mph - N/A   Partly Cloudy
7:53 PM 63.0 °F 53.1 °F 70% 30.17 in 10.0 mi NNE 8.1 mph - N/A   Partly Cloudy
8:53 PM 63.0 °F 54.0 °F 72% 30.18 in 10.0 mi NE 10.4 mph - N/A   Clear
9:53 PM 62.1 °F 54.0 °F 75% 30.19 in 10.0 mi NE 10.4 mph - N/A   Clear
10:53 PM 61.0 °F 54.0 °F 78% 30.21 in 10.0 mi North 3.5 mph - N/A   Clear
11:53 PM 60.1 °F 54.0 °F 80% 30.20 in 10.0 mi NNE 5.8 mph - N/A   Clear